Torna al catalogo

CSC-2

AttivoComunicazioniSSO
NORAD 58021·PAYLOAD·🇳🇱 Netherlands

Lanciato Oct 9, 2023 da Guiana Space Centre

Loading…

Prossimi Passaggi (prossime 24 ore)

TLE

AggiornatoSource: Space-Track

Epoca: Sep 14, 2026, 04:30 UTC

1 58021U 23155F   26257.18756678  .00006554  00000-0  28004-3 0  9999
2 58021  97.5358 334.1433 0003293 288.7352  71.3527 15.23203171161725

Traccia CSC-2 in tempo reale con AllMySat

Download on the App Store